Athens, GA

12:03 PM EDT on March 24, 2017 (GMT -0400)
Athens / Epps

Weather History for KAHN - November, 2013

Change the Weather History Date:

Saturday, November 2, 2013

  Actual Average Record
Temperature  
Mean Temperature 59 °F 58 °F  
Max Temperature 70 °F 70 °F 86 °F (1961)
Min Temperature 48 °F 46 °F 25 °F (1954)
Degree Days  
Heating Degree Days 6 8  
Month to date heating degree days 8 15  
Since 1 July heating degree days 120 150  
Growing Degree Days 9 (Base 50)    
Moisture  
Dew Point 44 °F    
Average Humidity 63    
Maximum Humidity 93    
Minimum Humidity 32    
Precipitation  
Precipitation 0.00 in 0.12 in 1.95 in (2015)
Month to date precipitation 0.39 0.23  
Year to date precipitation 50.24 39.01  
Snow  
Snow 0.00 in 0.00 in 0.00 in (2002)
Month to date snowfall 0.0 0.0  
Since 1 July snowfall 0.0 0.0  
Since 1 September snowfall 0.0 0.0  
Snow Depth 0.00 in    
Sea Level Pressure  
Sea Level Pressure 29.89 in    
Wind  
Wind Speed 5 mph (WNW)    
Max Wind Speed 16 mph    
Max Gust Speed 30 mph    
Visibility 10 miles    
Events      
T = Trace of Precipitation, MM = Missing Value Source: NWS Daily Summary

Daily Weather History Graph

Daily Weather History Graph

Search for Another Location

Airport or City:

Trip Planner

Search our weather history database for the weather conditions in past years. The results will help you decide how hot, cold, wet, or windy it might be!

Date:

Astronomy

Nov. 02, 2013 Rise Set
Actual Time 7:53 AM EDT 6:39 PM EDT
Civil Twilight 7:27 AM EDT 7:05 PM EDT
Nautical Twilight 6:58 AM EDT 7:34 PM EDT
Astronomical Twilight 6:29 AM EDT 8:04 PM EDT
Moon 6:52 AM EDT (11/2) 6:09 PM EDT (11/2)
Length of Visible Light 11h 37m
Length of Day
10h 45m
Waning Crescent, 1% of the Moon is Illuminated
Nov 2
Waning Crescent
Nov 3
New
Nov 10
First Quarter
Nov 17
Full
Nov 25
Last Quarter

Hourly Weather History & Observations

Time (EDT) Temp. Dew Point Humidity Pressure Visibility Wind Dir Wind Speed Gust Speed Precip Events Conditions
12:51 AM 55.0 °F 50.0 °F 83% 29.80 in 10.0 mi WNW 4.6 mph - N/A   Clear
1:51 AM 53.1 °F 48.9 °F 86% 29.81 in 10.0 mi West 3.5 mph - N/A   Clear
2:51 AM 52.0 °F 48.0 °F 86% 29.81 in 10.0 mi WNW 4.6 mph - N/A   Clear
3:51 AM 52.0 °F 48.0 °F 86% 29.82 in 10.0 mi Calm Calm - N/A   Clear
4:51 AM 50.0 °F 46.9 °F 89% 29.82 in 10.0 mi Calm Calm - N/A   Clear
5:51 AM 48.9 °F 46.0 °F 90% 29.82 in 10.0 mi Calm Calm - N/A   Clear
6:51 AM 48.0 °F 46.0 °F 93% 29.85 in 10.0 mi Calm Calm - N/A   Clear
7:51 AM 48.9 °F 45.0 °F 86% 29.86 in 10.0 mi Calm Calm - N/A   Clear
8:51 AM 50.0 °F 46.0 °F 86% 29.88 in 9.0 mi WNW 3.5 mph - N/A   Clear
9:51 AM 57.0 °F 50.0 °F 77% 29.90 in 10.0 mi West 3.5 mph - N/A   Clear
10:51 AM 61.0 °F 48.9 °F 64% 29.91 in 10.0 mi Variable 3.5 mph - N/A   Clear
11:51 AM 64.9 °F 46.0 °F 50% 29.91 in 10.0 mi West 3.5 mph - N/A   Clear
12:51 PM 68.0 °F 42.1 °F 39% 29.90 in 10.0 mi WNW 9.2 mph - N/A   Clear
1:51 PM 68.0 °F 42.1 °F 39% 29.88 in 10.0 mi West 10.4 mph - N/A   Mostly Cloudy
2:51 PM 69.1 °F 43.0 °F 39% 29.86 in 10.0 mi West 11.5 mph 18.4 mph N/A   Scattered Clouds
3:51 PM 68.0 °F 37.0 °F 32% 29.85 in 10.0 mi West 16.1 mph 27.6 mph N/A   Clear
4:51 PM 66.0 °F 39.0 °F 37% 29.86 in 10.0 mi NW 12.7 mph 19.6 mph N/A   Mostly Cloudy
5:51 PM 64.9 °F 39.9 °F 40% 29.88 in 10.0 mi NW 10.4 mph - N/A   Mostly Cloudy
6:51 PM 59.0 °F 42.1 °F 53% 29.91 in 10.0 mi West 4.6 mph - N/A   Clear
7:51 PM 59.0 °F 41.0 °F 51% 29.95 in 10.0 mi WNW 4.6 mph - N/A   Clear
8:51 PM 54.0 °F 41.0 °F 62% 29.98 in 10.0 mi NW 3.5 mph - N/A   Clear
9:51 PM 53.1 °F 39.9 °F 61% 30.01 in 10.0 mi NW 5.8 mph - N/A   Clear
10:51 PM 52.0 °F 39.0 °F 61% 30.03 in 10.0 mi NW 6.9 mph - N/A   Clear
11:51 PM 50.0 °F 37.9 °F 63% 30.04 in 10.0 mi NW 4.6 mph - N/A   Clear